Location: Newark
(44.3248°N, 23.7839°E)
Time: 06:07:57
(UTC+00:00)

PCSat - Pass Details

Date: 16 April 2024
Orbit: 783 x 792 km, 67.1° (Epoch: 26 May)

Event Time Altitude Azimuth Distance (km) Brightness Sun altitude
Rises 18:50:55 0° 208° (SSW) 3,262 12.7 -17.0°
Reaches altitude 10° 18:53:19 10° 208° (SSW) 2,339 11.9 -17.3°
Maximum altitude 18:58:41 87° 121° (ESE) 795 9.5 -18.1°
Drops below altitude 10° 19:04:07 10° 32° (NNE) 2,361 12.1 -18.9°
Sets 19:06:33 0° 32° (NNE) 3,295 12.9 -19.2°
